Find Starlink 2589

NORAD ID: 48371 Int'l Des: 2021-038 Owner: SPXS Country: US Constellation: starlink operational
LEOCIRCULAR

当前视图

正在加载3D地球...

About Starlink 2589

Starlink 2589 (NORAD 48371) is a starlink constellation satellite (v1.0) launched May 4, 2021 by SPXS of US. It operates in LEO, CIRCULAR orbit with a mass of 260.00 kg.

关于 Starlink 2589

正在加载描述...

即将过境

Passes for default location (London). Set your location on the main map for personalized predictions.

高度历史

Loading altitude history...

两行轨道根数

1 48371U 21038U 26174.84346610 -.00000537 00000-0 -55570-5 0 9993
2 48371 53.1589 214.0383 0001251 78.6983 281.4159 15.31689868283487
Epoch: Jun 23, 2026 • Age: 30 hours

当前状态

高度 476.5 km
速度 7.63 km/s
星下点 53.22°N, 6.33°W
发射日期 May 4, 2021
运行时间 5.1 years
类型 internet

技术详情

分类 Payload
质量 260.00 kg
干质量 248.00 kg
总质量 260.00 kg
长度 0.20 m
直径 2.80 m
跨度 9.00 m
形状 Box + pan
制造商 SPXS
平台类型 Starlink
阶段状态 In Orbit
所有者/国家 SPXS/US

Most Searched